This is the latest recevied weather packets stored in our database for station/object SQ5LTL-2. If no packets are shown the sender has not sent any weather packets the latest 10 day(s).
| Time | Temp. | Humidity | Pressure | Rain* | Wind** | Luminosity | Snow |
|---|---|---|---|---|---|---|---|
| 1778055917 | 22.78° C | 40% | 1006.8 hPa | 0 mm | - | 496 W/m² | - |
| 1778055615 | 22.78° C | 40% | 1006.8 hPa | 0 mm | - | 461 W/m² | - |
| 1778055335 | 22.22° C | 41% | 1006.8 hPa | 0 mm | - | 467 W/m² | - |
| 1778055032 | 22.22° C | 41% | 1006.9 hPa | 0 mm | - | 443 W/m² | - |
| 1778054731 | 22.22° C | 40% | 1006.9 hPa | 0 mm | - | 451 W/m² | - |
| 1778054430 | 22.22° C | 40% | 1006.8 hPa | 0 mm | - | 446 W/m² | - |
| 1778054128 | 22.22° C | 40% | 1006.8 hPa | 0 mm | - | 435 W/m² | - |
| 1778053827 | 22.22° C | 41% | 1006.8 hPa | 0 mm | - | 418 W/m² | - |
| 1778053526 | 22.22° C | 41% | 1006.7 hPa | 0 mm | - | 419 W/m² | - |
| 1778053224 | 21.67° C | 41% | 1006.8 hPa | 0 mm | - | 407 W/m² | - |
| 1778052922 | 21.67° C | 41% | 1007.1 hPa | 0 mm | - | 410 W/m² | - |
| 1778052622 | 21.67° C | 42% | 1007 hPa | 0 mm | - | 385 W/m² | - |
| 1778052320 | 21.67° C | 41% | 1007 hPa | 0 mm | - | 371 W/m² | - |
| 1778052017 | 21.11° C | 42% | 1006.9 hPa | 0 mm | - | 340 W/m² | - |
| 1778051716 | 21.11° C | 42% | 1007 hPa | 0 mm | - | 348 W/m² | - |
| 1778051436 | 21.11° C | 42% | 1007 hPa | 0 mm | - | 344 W/m² | - |
| 1778051133 | 20.56° C | 43% | 1007 hPa | 0 mm | - | 340 W/m² | - |
| 1778050831 | 20.56° C | 42% | 1007 hPa | 0 mm | - | 326 W/m² | - |
| 1778050530 | 20° C | 44% | 1007 hPa | 0 mm | - | 321 W/m² | - |
| 1778050230 | 20° C | 43% | 1007 hPa | 0 mm | - | 264 W/m² | - |
| 1778049927 | 20° C | 44% | 1006.9 hPa | 0 mm | - | 346 W/m² | - |
| 1778049626 | 20° C | 44% | 1007 hPa | 0 mm | - | 238 W/m² | - |
| 1778049324 | 19.44° C | 44% | 1007 hPa | 0 mm | - | 269 W/m² | - |
| 1778049023 | 18.89° C | 46% | 1007.1 hPa | 0 mm | - | 242 W/m² | - |
| 1778048722 | 19.44° C | 46% | 1007 hPa | 0 mm | - | 171 W/m² | - |
* Rain latest hour (hover to see other rain measurements)
** Current wind speed in m/s (hover to see current wind gust speed)